Tucson Davis Monthan, AZ

9:46 AM MST on June 24, 2018 (GMT -0700)
Davis-Monthan Air Force Base

Weather History for KDMA - October, 2017

Change the Weather History Date:

Monday, October 2, 2017

  Actual Average Record
Temperature  
Mean Temperature 77 °F -  
Max Temperature 93 °F 90 °F 101 °F (1980)
Min Temperature 61 °F 62 °F 49 °F (1982)
Cooling Degree Days 12    
Growing Degree Days 27 (Base 50)    
Moisture  
Dew Point 27 °F    
Average Humidity 16    
Maximum Humidity 30    
Minimum Humidity 8    
Precipitation  
Precipitation 0.00 in - - ()
Sea Level Pressure  
Sea Level Pressure 29.65 in    
Wind  
Wind Speed 6 mph (SW)    
Max Wind Speed 17 mph    
Max Gust Speed 25 mph    
Visibility 10 miles    
Events      
Averages and records for this station are not official NWS values.
T = Trace of Precipitation, MM = Missing Value Source: NWS Daily Summary

Daily Weather History Graph

Daily Weather History Graph

Search for Another Location

Airport or City:

Astronomy

Oct. 02, 2017 Rise Set
Actual Time 6:18 AM MST 6:06 PM MST
Civil Twilight 5:53 AM MST 6:31 PM MST
Nautical Twilight 5:25 AM MST 6:59 PM MST
Astronomical Twilight 4:57 AM MST 7:27 PM MST
Moon 4:33 PM MST (10/2) 3:05 AM MST (10/2)
Length of Visible Light 12h 37m
Length of Day
11h 48m
Waxing Gibbous, 90% of the Moon is Illuminated
Oct 2
Waxing Gibbous
Oct 5
Full
Oct 12
Last Quarter
Oct 19
New
Oct 27
First Quarter

Hourly Weather History & Observations

Time (MST) Temp. Dew Point Humidity Pressure Visibility Wind Dir Wind Speed Gust Speed Precip Events Conditions
12:58 AM 69.3 °F 23.9 °F 18% 29.63 in 10.0 mi Calm Calm - N/A   Clear
1:58 AM 68.9 °F 22.3 °F 17% 29.64 in 10.0 mi Calm Calm - N/A   Clear
2:58 AM 66.9 °F 22.1 °F 18% 29.63 in 10.0 mi Calm Calm - N/A   Clear
3:58 AM 63.1 °F 21.4 °F 20% 29.65 in 10.0 mi ESE 4.6 mph - N/A   Clear
4:58 AM 61.5 °F 23.4 °F 23% 29.65 in 10.0 mi ESE 8.1 mph - N/A   Clear
5:58 AM 61.0 °F 25.0 °F 25% 29.66 in 10.0 mi SSE 8.1 mph - N/A   Clear
6:58 AM 64.4 °F 32.4 °F 30% 29.67 in 10.0 mi ESE 8.1 mph - N/A   Clear
7:58 AM 72.7 °F 34.9 °F 25% 29.68 in 10.0 mi SE 4.6 mph - N/A   Clear
8:58 AM 79.9 °F 35.2 °F 20% 29.69 in 10.0 mi Calm Calm - N/A   Clear
9:58 AM 83.7 °F 35.6 °F 18% 29.68 in 10.0 mi WSW 5.8 mph - N/A   Clear
10:58 AM 88.0 °F 24.6 °F 10% 29.66 in 10.0 mi SW 17.3 mph 25.3 mph N/A   Clear
11:58 AM 90.7 °F 26.6 °F 10% 29.64 in 10.0 mi SW 15.0 mph 25.3 mph N/A   Clear
12:58 PM 91.6 °F 27.3 °F 10% 29.63 in 10.0 mi SW 12.7 mph 23.0 mph N/A   Clear
1:12 PM 91.4 °F 28.4 °F 10% 29.62 in 10.0 mi SSW 11.5 mph 20.7 mph N/A   Clear
1:58 PM 92.8 °F 28.2 °F 10% 29.61 in 10.0 mi SW 12.7 mph 21.9 mph N/A   Clear
2:50 PM 93.2 °F 24.8 °F 9% 29.60 in 10.0 mi WSW 13.8 mph 24.2 mph N/A   Clear
2:58 PM 92.8 °F 25.7 °F 9% 29.60 in 10.0 mi WSW 10.4 mph 24.2 mph N/A   Clear
3:58 PM 92.3 °F 22.5 °F 8% 29.61 in 10.0 mi WSW 15.0 mph 20.7 mph N/A   Clear
4:58 PM 90.9 °F 24.3 °F 9% 29.61 in 10.0 mi WSW 10.4 mph 19.6 mph N/A   Clear
5:58 PM 87.3 °F 24.1 °F 10% 29.63 in 10.0 mi West 8.1 mph - N/A   Clear
6:58 PM 81.7 °F 26.1 °F 13% 29.64 in 10.0 mi West 5.8 mph - N/A   Clear
7:58 PM 77.4 °F 26.1 °F 15% 29.67 in 10.0 mi West 4.6 mph - N/A   Clear
8:58 PM 74.5 °F 28.2 °F 18% 29.69 in 10.0 mi NNW 3.5 mph - N/A   Clear
9:58 PM 71.6 °F 28.4 °F 20% 29.71 in 10.0 mi Calm Calm - N/A   Clear
10:58 PM 68.4 °F 32.2 °F 26% 29.72 in 10.0 mi SE 6.9 mph - N/A   Clear
11:58 PM 64.2 °F 29.5 °F 27% 29.73 in 10.0 mi SE 6.9 mph - N/A   Clear